Starlink 5992

operational
NORAD ID: 56328 Int'l Des: 2023-058 Owner: SPXS Country: US Constellation: starlink
LEOCIRCULARRETROGRADESSO

Über Starlink 5992

Beschreibung wird geladen...

Live-Position

3D-Globus wird geladen...

Nächste Überflüge

Höhenverlauf

Altitude vs Time

uPlot chart will show altitude changes over time

Zweizeiliger Elementsatz

1 56328U 23058M 25350.26699222 .00000596 00000-0 45489-4 0 9999
2 56328 97.6052 348.9775 0001607 92.1251 268.0159 15.05647032145646
Epoch: 16. Dez. 2025 • Age: 16 hours

Aktueller Status

Höhe 556.2 km
Geschwindigkeit 7.58 km/s
Subsatellitenpunkt -15.73°S, 68.35°W
Startdatum 27. Apr. 2023
Alter 2.6 years
Typ internet

Technische Details

Klassifizierung Payload
Masse 300.00 kg
Trockenmasse 260.00 kg
Gesamtmasse 300.00 kg
Länge 0.20 m
Durchmesser 2.80 m
Spannweite 9.00 m
Form Box + pan
Hersteller SPXS
Bus-Typ Starlink
Phasenstatus In Orbit
Besitzer/Staat SPXS/US

Große Konstellationen

Loading constellations...